User: anonymous   Login
Location: Hannover
(52.3723°N, 9.7339°E)
Time: 23:20:11
(UTC+01:00)
Language:

YUBILEINY - Orbit

View from above orbital plane
View from above orbital plane
View from above satellite
View from above satellite

Ground track
Ground track

The orbit data is extracted from the following two-line orbital elements,

1 32953U 08025A   20028.55056676  .00000037  00000-0  19437-3 0  9996
2 32953  82.5041   5.5381 0019607   4.8027 355.3239 12.43094059530128
Epoch (UTC): 28 January 2020 13:12:48
Eccentricity: 0.0019607
inclination: 82.5041°
perigee height: 1478 km
apogee height: 1509 km
right ascension of ascending node: 5.5381°
argument of perigee: 4.8027°
revolutions per day: 12.43094059
mean anomaly at epoch: 355.3239°
orbit number at epoch: 53012

The dashed part of the orbit path shows where the satellite is in the earth's shadow,  

DLR